EDT,Max TemperatureF,Mean TemperatureF,Min TemperatureF,Max Dew PointF,MeanDew PointF,Min DewpointF,Max Humidity, Mean Humidity, Min Humidity, Max Sea Level PressureIn, Mean Sea Level PressureIn, Min Sea Level PressureIn, Max VisibilityMiles, Mean VisibilityMiles, Min VisibilityMiles, Max Wind SpeedMPH, Mean Wind SpeedMPH, Max Gust SpeedMPH,PrecipitationIn, CloudCover, Events, WindDirDegrees
2013-10-1,80,66,51,63,57,52,100,79,42,30.17,30.11,30.07,10,10,10,7,1,,0.00,0,,64
2013-10-2,84,70,55,64,60,55,100,78,42,30.17,30.13,30.08,10,10,10,7,1,,0.00,0,,87
2013-10-3,84,70,57,66,61,57,100,78,45,30.16,30.12,30.08,10,10,7,8,1,,0.00,0,,97
2013-10-4,86,74,62,73,65,61,100,82,43,30.17,30.12,30.09,10,8,0,7,1,,0.00,2,Fog,76
2013-10-5,86,73,60,73,65,61,100,80,45,30.15,30.10,30.04,10,10,10,8,1,,0.00,1,,112
2013-10-6,86,75,64,73,69,64,100,90,55,30.06,29.99,29.91,10,8,0,17,3,25,0.00,5,Fog-Thunderstorm,139
2013-10-7,77,74,71,75,73,70,100,96,83,29.92,29.87,29.83,10,9,3,9,4,,0.00,6,Rain,216
2013-10-8,71,65,59,72,61,55,100,85,68,30.13,30.02,29.89,10,10,7,13,6,21,0.00,7,,43
2013-10-9,77,66,53,57,54,50,100,71,39,30.18,30.12,30.08,10,10,10,10,6,16,0.00,4,,28
2013-10-10,80,64,48,61,55,48,100,78,39,30.13,30.07,29.99,10,10,5,14,3,17,0.00,1,,322
2013-10-11,82,66,51,61,56,52,100,78,37,30.05,30.00,29.95,10,10,10,12,2,17,0.00,0,,300
2013-10-12,82,66,51,66,58,52,100,79,39,30.07,30.02,29.98,10,10,10,5,1,,0.00,2,,327
2013-10-13,78,69,60,68,64,61,100,88,57,30.17,30.12,30.07,10,10,7,8,3,,0.00,6,Rain,31
2013-10-14,71,66,62,66,64,63,100,93,73,30.19,30.14,30.11,10,10,4,10,4,,0.00,7,,30
2013-10-15,77,68,60,64,60,55,100,80,47,30.14,30.09,30.03,10,10,10,10,5,16,0.00,4,,50
2013-10-16,80,68,55,66,60,55,100,81,51,30.06,30.02,29.96,10,10,10,6,1,,0.00,3,,57
2013-10-17,82,72,62,70,65,63,100,81,51,30.01,29.96,29.90,10,9,0,10,2,,0.00,4,Fog,229
2013-10-18,73,70,68,72,70,68,100,100,94,30.02,29.96,29.92,10,9,3,6,1,,0.00,8,Rain,284
2013-10-19,73,66,60,70,64,59,100,92,65,29.99,29.96,29.92,10,9,4,8,2,,0.00,7,Rain,295
2013-10-20,73,64,55,61,56,52,100,82,47,30.06,30.02,29.97,10,10,7,9,1,,0.00,2,Rain,46
2013-10-21,69,63,57,63,59,55,100,88,60,30.12,30.07,30.03,10,10,10,6,3,,0.00,3,,91
2013-10-22,69,64,60,66,62,57,100,96,68,30.05,29.96,29.88,10,10,7,7,1,,0.00,6,Rain,173
2013-10-23,71,61,51,63,48,34,100,67,27,30.08,29.92,29.84,10,9,3,21,6,28,0.00,2,,305
2013-10-24,68,52,37,48,39,36,100,67,30,30.23,30.16,30.08,10,10,10,8,3,,0.00,0,,315
2013-10-25,62,52,41,45,39,34,100,71,36,30.34,30.28,30.18,10,10,10,12,2,16,0.00,0,,16
2013-10-26,62,50,37,43,36,32,100,67,32,30.34,30.26,30.17,10,10,10,8,3,,0.00,0,,59
2013-10-27,73,55,37,55,46,37,100,79,44,30.18,30.14,30.11,10,10,10,8,1,,0.00,0,,299
2013-10-28,73,62,51,59,56,52,100,86,53,30.29,30.22,30.15,10,10,10,8,1,,0.00,4,Rain,47
2013-10-29,77,62,48,61,55,48,100,81,44,30.35,30.29,30.25,10,10,10,5,1,,0.00,1,,71
2013-10-30,78,64,50,61,55,50,100,79,42,30.33,30.26,30.20,10,10,7,6,1,,0.00,0,,181
2013-10-31,80,68,55,68,62,55,100,83,54,30.22,30.10,29.98,10,10,7,13,3,18,0.00,2,,168